DW4238 Weather Reports


time (UTC)temp
F
wind
direction
speed
knots
gust
knots
rain 1hr
in
rain 24hr
in
rain mn
in
humidity
%
barometer
mb
20260905173131 87 140 0.9 7.0 0.00 0.00 0.00 77 1013.6
20260905172622 87 66 0.9 3.5 0.00 0.00 0.00 78 1013.7
20260905172124 86 313 1.7 5.2 0.00 0.00 0.00 78 1013.8
20260905171556 86 313 3.5 7.0 0.00 0.00 0.00 79 1013.8
20260905171100 86 327 3.5 7.8 0.00 0.00 0.00 78 1013.8
20260905170607 86 334 5.2 7.8 0.00 0.00 0.00 78 1013.8
20260905170036 86 305 4.3 7.0 0.00 0.00 0.00 76 1013.8
20260905165540 86 322 4.3 7.8 0.00 0.00 0.00 77 1013.9
20260905164610 87 315 4.3 7.0 0.00 0.00 0.00 76 1013.8
20260905164115 88 339 3.5 5.2 0.00 0.00 0.00 75 1013.8
20260905163626 89 294 0.0 2.6 0.00 0.00 0.00 74 1013.8
20260905163051 88 279 0.0 2.6 0.00 0.00 0.00 74 1013.9
20260905162604 88 278 0.0 3.5 0.00 0.00 0.00 76 1013.9
20260905162110 87 270 1.7 6.1 0.00 0.00 0.00 76 1013.9
20260905161536 87 254 0.9 6.1 0.00 0.00 0.00 75 1013.8
20260905161047 87 252 2.6 6.1 0.00 0.00 0.00 77 1013.8
20260905160108 86 243 1.7 4.3 0.00 0.00 0.00 79 1013.8
20260905155619 86 216 0.9 4.3 0.00 0.00 0.00 79 1013.8
20260905155124 86 215 3.5 6.1 0.00 0.00 0.00 79 1013.8
20260905154556 87 224 4.3 6.1 0.00 0.00 0.00 79 1013.8
20260905154108 87 244 3.5 7.0 0.00 0.00 0.00 79 1013.8
20260905153602 86 249 2.6 5.2 0.00 0.00 0.00 80 1013.9
20260905153033 86 255 3.5 4.3 0.00 0.00 0.00 82 1013.9
20260905152539 85 239 2.6 4.3 0.00 0.00 0.00 82 1013.9
20260905151608 85 234 3.5 6.1 0.00 0.00 0.00 84 1013.9
20260905151052 85 223 4.3 6.1 0.00 0.00 0.00 84 1013.9
20260905150645 85 240 3.5 6.1 0.00 0.00 0.00 85 1013.9
20260905150049 84 221 3.5 6.1 0.00 0.00 0.00 86 1013.9
20260905145601 84 240 2.6 6.1 0.00 0.00 0.00 86 1013.8
20260905144604 84 209 0.9 4.3 0.00 0.00 0.00 88 1013.8
20260905144049 84 201 0.9 3.5 0.00 0.00 0.00 88 1013.8
20260905143118 83 197 0.9 5.2 0.00 0.00 0.00 89 1013.8
20260905142602 83 197 2.6 5.2 0.00 0.00 0.00 89 1013.8
20260905142115 82 196 0.9 3.5 0.00 0.00 0.00 90 1013.8
20260905141542 82 195 1.7 3.5 0.00 0.00 0.00 90 1013.8
20260905141050 82 193 2.6 3.5 0.00 0.00 0.00 90 1013.8
20260905140122 82 158 0.0 0.0 0.00 0.00 0.00 91 1013.9
20260905135622 81 155 0.0 0.0 0.00 0.00 0.00 91 1013.8
20260905135033 81 155 0.0 0.0 0.00 0.00 0.00 91 1013.7
20260905134539 81 155 0.0 0.0 0.00 0.00 0.00 91 1013.6
20260905134051 81 154 0.0 0.0 0.00 0.00 0.00 91 1013.7
20260905133113 80 155 0.0 1.7 0.00 0.00 0.00 92 1013.5
20260905132606 80 155 0.0 1.7 0.00 0.00 0.00 93 1013.5
20260905132109 79 155 0.0 0.0 0.00 0.00 0.00 93 1013.6
20260905131538 79 155 0.0 0.0 0.00 0.00 0.00 93 1013.6
20260905131039 79 155 0.0 0.0 0.00 0.00 0.00 93 1013.4
20260905130652 79 155 0.0 0.0 0.00 0.00 0.00 93 1013.4
20260905130058 78 155 0.0 0.0 0.00 0.00 0.00 93 1013.3
20260905125603 78 155 0.0 0.0 0.00 0.00 0.00 93 1013.3
20260905124632 78 155 0.0 0.0 0.00 0.00 0.00 93 1013.2
20260905124137 77 155 0.0 0.0 0.00 0.00 0.00 93 1013.1
20260905123627 77 155 0.0 0.0 0.00 0.00 0.00 93 1013.0
20260905123051 77 155 0.0 0.0 0.00 0.00 0.00 93 1012.9
20260905122602 77 155 0.0 0.0 0.00 0.00 0.00 92 1012.9
20260905121625 77 155 0.0 0.0 0.00 0.00 0.00 92 1012.9
20260905121137 77 155 0.0 0.0 0.00 0.00 0.00 92 1012.8
20260905120627 77 155 0.0 0.0 0.00 0.00 0.00 92 1012.7
20260905120047 77 155 0.0 0.0 0.00 0.00 0.00 92 1012.6
20260905115559 77 155 0.0 0.0 0.00 0.00 0.00 92 1012.6
20260905114622 77 155 0.0 0.0 0.00 0.00 0.00 92 1012.7
20260905114037 77 155 0.0 0.0 0.00 0.00 0.00 92 1012.6
20260905113541 77 155 0.0 0.0 0.00 0.00 0.00 92 1012.6
20260905113153 77 155 0.0 0.0 0.00 0.00 0.00 92 1012.5
20260905112624 77 155 0.0 0.0 0.00 0.00 0.00 92 1012.4
20260905111623 77 155 0.0 0.0 0.00 0.00 0.00 92 1012.3
20260905111128 78 155 0.0 0.0 0.00 0.00 0.00 92 1012.3
20260905110635 78 155 0.0 0.0 0.00 0.00 0.00 92 1012.3
20260905110101 78 155 0.0 0.0 0.00 0.00 0.00 92 1012.2
20260905105544 78 155 0.0 0.0 0.00 0.00 0.00 92 1012.2
20260905104610 78 155 0.0 0.0 0.00 0.00 0.00 91 1012.2
20260905104121 78 155 0.0 0.0 0.00 0.00 0.00 91 1012.1
20260905103626 78 155 0.0 0.0 0.00 0.00 0.00 91 1012.1
20260905103050 78 155 0.0 0.0 0.00 0.00 0.00 91 1012.2
20260905102555 78 155 0.0 0.0 0.00 0.00 0.00 92 1012.1
20260905102103 78 155 0.0 0.0 0.00 0.00 0.00 92 1012.1
20260905101534 78 155 0.0 0.0 0.00 0.00 0.00 92 1012.1
20260905101039 78 155 0.0 0.0 0.00 0.00 0.00 92 1012.0
20260905100112 78 155 0.0 0.0 0.00 0.00 0.00 91 1012.1
20260905095617 78 155 0.0 0.0 0.00 0.03 0.00 91 1012.1
20260905095130 78 155 0.0 0.0 0.00 0.03 0.00 91 1012.1
20260905094550 78 155 0.0 0.0 0.00 0.03 0.00 91 1012.1
20260905094102 78 155 0.0 0.0 0.00 0.03 0.00 91 1012.1
20260905093611 78 155 0.0 0.0 0.00 0.03 0.00 91 1012.2
20260905093033 78 155 0.0 0.0 0.00 0.03 0.00 91 1012.1
20260905092119 78 155 0.0 0.0 0.00 0.03 0.00 91 1012.2
20260905091550 78 155 0.0 0.0 0.00 0.03 0.00 91 1012.3
20260905091055 78 155 0.0 0.0 0.00 0.03 0.00 91 1012.2
20260905090603 78 155 0.0 0.0 0.00 0.03 0.00 91 1012.2
20260905090034 78 155 0.0 0.0 0.00 0.03 0.00 92 1012.2
20260905085539 78 155 0.0 0.0 0.00 0.04 0.00 92 1012.2
20260905084608 78 155 0.0 0.0 0.00 0.04 0.00 91 1012.0
20260905084113 78 155 0.0 2.6 0.00 0.04 0.00 91 1012.1
20260905083626 78 155 0.9 4.3 0.00 0.04 0.00 91 1012.0
20260905083049 78 155 1.7 4.3 0.00 0.04 0.00 91 1012.1
20260905082601 78 156 1.7 4.3 0.00 0.04 0.00 91 1012.1
20260905081038 79 157 3.5 5.2 0.00 0.04 0.00 90 1012.0
20260905080100 79 159 0.9 4.3 0.00 0.04 0.00 90 1012.0
20260905075549 79 161 2.6 4.3 0.00 0.04 0.00 90 1012.1
20260905074615 80 165 3.5 7.0 0.00 0.04 0.00 90 1012.1
20260905074106 80 166 2.6 7.0 0.00 0.04 0.00 90 1012.1
20260905073104 80 175 2.6 7.0 0.00 0.04 0.00 90 1012.1
20260905072615 80 186 2.6 7.0 0.00 0.04 0.00 89 1012.1
20260905071637 80 178 4.3 7.8 0.00 0.04 0.00 89 1012.2
20260905071128 80 188 4.3 7.8 0.00 0.04 0.00 89 1012.3
20260905070632 80 186 4.3 7.0 0.00 0.04 0.00 89 1012.2
20260905070059 80 183 3.5 6.1 0.00 0.04 0.00 89 1012.3
20260905065548 80 178 3.5 5.2 0.00 0.04 0.00 89 1012.5
20260905065058 80 184 2.6 5.2 0.00 0.04 0.00 89 1012.5
20260905064550 80 172 3.5 5.2 0.00 0.04 0.00 89 1012.5
20260905064040 80 175 3.5 5.2 0.00 0.04 0.00 89 1012.6
20260905063534 80 177 2.6 4.3 0.00 0.04 0.00 88 1012.6
20260905063047 80 184 3.5 6.1 0.00 0.04 0.00 88 1012.7
20260905062538 80 174 3.5 6.1 0.00 0.04 0.00 88 1012.7
20260905062048 80 170 3.5 7.0 0.00 0.04 0.00 88 1012.6
20260905061542 80 171 4.3 7.0 0.00 0.04 0.00 88 1012.6
20260905061119 80 163 4.3 6.1 0.00 0.04 0.00 88 1012.6
20260905060540 80 163 2.6 7.0 0.00 0.04 0.00 88 1012.6
20260905060040 80 157 3.5 7.0 0.00 0.04 0.00 87 1012.6
20260905055551 80 167 2.6 5.2 0.00 0.04 0.00 87 1012.6
20260905055034 81 173 3.5 5.2 0.00 0.04 0.00 87 1012.7
20260905054534 81 175 4.3 6.1 0.00 0.04 0.00 87 1012.6
20260905054045 81 173 4.3 7.0 0.00 0.04 0.00 86 1012.7
20260905053555 81 180 5.2 8.7 0.00 0.04 0.00 86 1012.6
20260905053048 81 188 5.2 8.7 0.00 0.04 0.00 86 1012.6
20260905052538 81 163 5.2 7.8 0.00 0.04 0.00 86 1012.6
20260905052049 81 174 5.2 6.1 0.00 0.04 0.00 86 1012.4
20260905051542 81 175 5.2 6.1 0.00 0.04 0.00 85 1012.5
20260905051052 82 165 5.2 8.7 0.00 0.04 0.00 85 1012.6
20260905050542 82 171 6.1 9.6 0.00 0.04 0.00 85 1012.7
20260905050122 82 169 6.1 7.8 0.00 0.04 0.00 85 1012.6
20260905045626 82 161 6.1 7.8 0.00 0.04 0.04 85 1012.6
20260905044627 82 151 5.2 7.0 0.00 0.04 0.04 85 1012.7
20260905044043 81 182 5.2 6.1 0.00 0.04 0.04 85 1012.8
20260905043105 81 184 2.6 6.1 0.00 0.04 0.04 86 1012.8
20260905042617 81 160 3.5 7.0 0.00 0.04 0.04 86 1012.8
20260905042121 81 153 4.3 7.0 0.00 0.04 0.04 86 1012.8
20260905041548 81 146 4.3 7.0 0.00 0.04 0.04 85 1012.8
20260905041100 81 148 4.3 7.0 0.00 0.04 0.04 85 1012.8
20260905040105 81 146 3.5 7.0 0.00 0.04 0.04 85 1012.7
20260905035610 81 153 4.3 7.0 0.00 0.04 0.04 85 1012.8
20260905035121 82 151 4.3 7.0 0.00 0.04 0.04 84 1012.9
20260905034542 82 148 4.3 7.0 0.00 0.04 0.04 84 1012.9
20260905034053 82 144 3.5 6.1 0.00 0.04 0.04 84 1012.9
20260905033603 82 142 3.5 6.1 0.00 0.04 0.04 83 1012.9
20260905033148 82 138 2.6 6.1 0.00 0.04 0.04 83 1012.9
20260905032537 82 142 1.7 4.3 0.00 0.04 0.04 82 1012.9
20260905032121 82 144 1.7 4.3 0.00 0.04 0.04 82 1012.8
20260905031549 82 150 2.6 5.2 0.00 0.04 0.04 82 1012.8
20260905031101 83 150 2.6 4.3 0.00 0.04 0.04 82 1012.8
20260905030605 83 148 3.5 7.0 0.00 0.04 0.04 81 1012.7
20260905030038 83 143 4.3 7.0 0.00 0.04 0.04 81 1012.7
20260905025550 83 138 3.5 6.1 0.00 0.04 0.04 80 1012.7
20260905024612 83 128 1.7 5.2 0.00 0.04 0.04 79 1012.6
20260905024117 83 128 0.0 4.3 0.00 0.04 0.04 79 1012.5
20260905023629 84 129 1.7 4.3 0.00 0.04 0.04 79 1012.4
20260905023055 84 130 0.0 0.9 0.00 0.04 0.04 79 1012.4
20260905022600 84 130 0.0 0.0 0.00 0.04 0.04 79 1012.3
20260905022111 84 130 0.0 1.7 0.00 0.04 0.04 79 1012.3
20260905021542 84 130 0.0 0.9 0.00 0.04 0.04 79 1012.2
20260905021046 84 130 0.0 0.9 0.00 0.04 0.04 80 1012.3
20260905020108 84 130 0.0 1.7 0.00 0.04 0.04 79 1012.1
20260905015619 84 130 0.0 2.6 0.00 0.04 0.04 79 1012.1
20260905015131 84 130 0.9 2.6 0.00 0.04 0.04 79 1012.1
20260905014552 84 129 0.0 0.9 0.00 0.04 0.04 79 1011.8
20260905014042 85 132 0.0 0.9 0.00 0.04 0.04 79 1011.9
20260905013109 85 132 0.0 0.9 0.00 0.04 0.04 78 1011.8
20260905012620 85 132 0.0 4.3 0.00 0.04 0.04 78 1011.9
20260905011619 85 136 0.0 0.9 0.00 0.04 0.04 77 1011.8
20260905011110 86 138 0.0 3.5 0.00 0.04 0.04 77 1011.7
20260905010131 86 140 1.7 6.1 0.00 0.04 0.04 76 1011.7
20260905005636 86 117 0.9 5.2 0.00 0.04 0.04 76 1011.4
20260905005126 87 113 1.7 5.2 0.00 0.04 0.04 75 1011.5
20260905004552 87 113 0.9 3.5 0.00 0.04 0.04 75 1011.5
20260905004057 87 107 1.7 5.2 0.00 0.04 0.04 74 1011.4
20260905003100 88 120 2.6 7.8 0.00 0.04 0.04 73 1011.3
20260905002551 88 125 4.3 7.8 0.00 0.04 0.04 73 1011.3
20260905001614 88 124 2.6 7.8 0.00 0.04 0.04 72 1011.2
20260905001105 89 87 2.6 7.0 0.00 0.04 0.04 72 1011.3
20260905000127 89 124 2.6 7.8 0.00 0.04 0.04 71 1011.3
20260904235538 89 105 2.6 7.8 0.00 0.04 0.04 70 1011.2
20260904234605 90 126 3.5 8.7 0.00 0.04 0.04 70 1011.3
20260904234116 90 83 4.3 8.7 0.00 0.04 0.04 69 1011.2
20260904233611 90 108 4.3 10.4 0.00 0.04 0.04 69 1011.1
20260904233044 90 82 7.0 10.4 0.00 0.04 0.04 68 1011.2
20260904232549 90 82 5.2 9.6 0.00 0.04 0.04 68 1011.3
20260904231619 90 78 6.1 12.2 0.00 0.04 0.04 68 1011.3
20260904231042 91 88 7.0 11.3 0.00 0.04 0.04 67 1011.2
20260904225618 91 137 7.0 12.2 0.00 0.04 0.04 63 1011.2
20260904224615 90 148 6.1 12.2 0.00 0.04 0.04 64 1011.2
20260904224125 90 144 6.1 12.2 0.00 0.04 0.04 65 1011.3
20260904223123 91 143 4.3 8.7 0.00 0.04 0.04 65 1011.2
20260904222539 90 121 5.2 8.7 0.00 0.04 0.04 68 1011.4
20260904222153 90 122 4.3 8.7 0.00 0.04 0.04 68 1011.4
20260904221559 90 123 2.6 8.7 0.00 0.04 0.04 69 1011.4
20260904221042 90 142 6.1 8.7 0.00 0.04 0.04 68 1011.3
20260904220101 90 131 3.5 9.6 0.00 0.04 0.04 69 1011.5
20260904215613 90 165 7.0 9.6 0.00 0.04 0.04 67 1011.6
20260904215124 90 136 7.0 9.6 0.00 0.04 0.04 67 1011.7
20260904214548 90 136 4.3 10.4 0.00 0.04 0.04 69 1011.8
20260904214100 90 104 6.1 10.4 0.00 0.04 0.04 67 1011.9
20260904213122 89 157 5.2 8.7 0.00 0.04 0.04 66 1012.0
20260904212613 89 132 5.2 9.6 0.00 0.04 0.04 68 1012.1
20260904211634 89 126 3.5 8.7 0.00 0.04 0.04 69 1012.2
20260904211125 88 78 5.2 7.8 0.00 0.04 0.04 68 1012.2
20260904210606 88 131 4.3 9.6 0.00 0.04 0.04 70 1012.2
20260904210038 88 119 5.2 9.6 0.00 0.04 0.04 73 1012.2
20260904205547 87 90 2.6 9.6 0.00 0.04 0.04 75 1012.3
20260904204547 87 105 4.3 7.8 0.00 0.04 0.04 76 1012.4
20260904204152 87 130 5.2 11.3 0.00 0.04 0.04 75 1012.4
20260904203542 87 107 6.1 11.3 0.00 0.04 0.04 76 1012.5
20260904203155 86 128 6.1 12.2 0.00 0.04 0.04 78 1012.7
20260904202639 86 129 6.1 13.0 0.00 0.04 0.04 79 1012.7
20260904202130 86 140 5.2 12.2 0.00 0.04 0.04 81 1012.7
20260904201537 86 102 7.0 11.3 0.00 0.04 0.04 82 1012.7
20260904201041 85 135 6.1 9.6 0.00 0.04 0.04 82 1012.8
20260904200101 84 118 3.5 7.8 0.00 0.04 0.04 86 1012.8
20260904195613 84 120 4.3 9.6 0.00 0.04 0.04 86 1012.8
20260904194639 83 111 4.3 7.0 0.00 0.04 0.04 87 1012.9
20260904194128 83 142 3.5 7.0 0.00 0.04 0.04 87 1012.9
20260904193607 83 135 4.3 7.0 0.00 0.04 0.04 86 1012.9
20260904193038 83 132 4.3 7.0 0.00 0.04 0.04 86 1012.9
20260904192549 83 139 2.6 7.0 0.00 0.04 0.04 86 1012.9
20260904191611 83 124 3.5 7.8 0.00 0.04 0.04 85 1013.0
20260904191055 83 134 2.6 7.0 0.00 0.04 0.04 85 1013.1
20260904190602 83 159 5.2 9.6 0.00 0.04 0.04 84 1013.2
20260904190034 83 138 5.2 8.7 0.00 0.04 0.04 83 1013.3
20260904185538 84 150 6.1 8.7 0.00 0.04 0.04 82 1013.4
20260904184608 84 145 3.5 8.7 0.00 0.04 0.04 81 1013.5
20260904184113 85 117 5.2 8.7 0.00 0.04 0.04 80 1013.7
20260904183625 85 130 5.2 8.7 0.00 0.04 0.04 80 1013.7
20260904183046 85 126 4.3 8.7 0.00 0.04 0.04 80 1013.9
20260904182556 86 123 3.5 7.8 0.00 0.04 0.04 80 1014.0
20260904181557 86 109 2.6 9.6 0.00 0.04 0.04 80 1013.9
20260904181050 86 138 4.3 9.6 0.00 0.04 0.04 79 1013.9
20260904180109 87 121 3.5 9.6 0.00 0.04 0.04 79 1014.0
20260904175621 87 91 3.5 7.8 0.00 0.04 0.04 80 1014.0
20260904175127 87 103 2.6 8.7 0.00 0.04 0.04 79 1013.9
20260904174554 87 82 4.3 7.8 0.00 0.04 0.04 80 1013.9
20260904174100 87 76 5.2 9.6 0.00 0.04 0.04 79 1013.8